Вернуться в каталог

SPACEMOBILE-SSR05 DEB

АктивенVLEO
NORAD 62373·DEBRIS·🇺🇸 United States

Запущен Sep 12, 2024 с Cape Canaveral Space Force Station

Loading…

Ближайшие Пролёты (ближайшие 24 часа)

TLE

СвежийSource: Space-Track

Эпоха: Sep 14, 2026, 07:58 UTC

1 62373U 24163K   26257.33247608  .00009036  00000-0  26729-3 0  9999
2 62373  52.9731 225.0563 0008982  72.8585 287.3399 15.35653315111815

Отслеживайте SPACEMOBILE-SSR05 DEB в реальном времени с AllMySat

Download on the App Store